Bainbridge, GA

11:03 AM EDT on April 28, 2017 (GMT -0400)
Decatur County Industrial

Weather History for KBGE - May, 2013

Change the Weather History Date:

Wednesday, May 1, 2013

  Actual Average (KTLH) Record (KTLH)
Temperature  
Mean Temperature 68 °F -  
Max Temperature 71 °F 83 °F 95 °F (1990)
Min Temperature 64 °F 57 °F 43 °F (1996)
Cooling Degree Days 2    
Growing Degree Days 18 (Base 50)    
Moisture  
Dew Point 63 °F    
Average Humidity 80    
Maximum Humidity 94    
Minimum Humidity 73    
Precipitation  
Precipitation 0.00 in - - ()
Sea Level Pressure  
Sea Level Pressure 30.03 in    
Wind  
Wind Speed 10 mph (East)    
Max Wind Speed 18 mph    
Max Gust Speed 24 mph    
Visibility 10 miles    
Events Rain    
Averages and records for this station are not official NWS values.
T = Trace of Precipitation, MM = Missing Value Source: NWS Daily Summary

Daily Weather History Graph

Daily Weather History Graph

Search for Another Location

Airport or City:

Trip Planner

Search our weather history database for the weather conditions in past years. The results will help you decide how hot, cold, wet, or windy it might be!

Date:

Astronomy

May. 01, 2013 Rise Set
Actual Time 6:54 AM EDT 8:17 PM EDT
Civil Twilight 6:28 AM EDT 8:43 PM EDT
Nautical Twilight 5:57 AM EDT 9:14 PM EDT
Astronomical Twilight 5:25 AM EDT 9:46 PM EDT
Moon 1:25 AM EDT (5/1) 12:31 PM EDT (5/1)
Length of Visible Light 14h 14m
Length of Day
13h 23m
Waning Gibbous, 59% of the Moon is Illuminated
May 1
Waning Gibbous
May 2
Last Quarter
May 9
New
May 18
First Quarter
May 25
Full

Hourly Weather History & Observations

Time (EDT) Temp. Dew Point Humidity Pressure Visibility Wind Dir Wind Speed Gust Speed Precip Events Conditions
12:15 AM 71.6 °F 64.4 °F 78% 30.02 in 10.0 mi East 5.8 mph - N/A   Clear
12:35 AM 71.6 °F 64.4 °F 78% 30.01 in 10.0 mi East 6.9 mph - N/A   Clear
1:15 AM 71.6 °F 64.4 °F 78% 30.00 in 10.0 mi East 6.9 mph - N/A   Clear
1:35 AM 71.6 °F 64.4 °F 78% 30.00 in 10.0 mi East 5.8 mph - N/A   Clear
1:55 AM 71.6 °F 64.4 °F 78% 30.00 in 10.0 mi East 5.8 mph - N/A   Clear
2:15 AM 71.6 °F 66.2 °F 83% 30.00 in 10.0 mi East 6.9 mph - N/A   Clear
2:35 AM 71.6 °F 66.2 °F 83% 30.00 in 10.0 mi East 6.9 mph - N/A   Clear
2:55 AM 69.8 °F 64.4 °F 83% 30.00 in 10.0 mi East 6.9 mph - N/A   Clear
3:15 AM 69.8 °F 64.4 °F 83% 30.00 in 10.0 mi ESE 5.8 mph - N/A   Clear
3:35 AM 69.8 °F 64.4 °F 83% 29.98 in 10.0 mi East 8.1 mph - N/A   Clear
3:55 AM 69.8 °F 64.4 °F 83% 29.98 in 10.0 mi East 5.8 mph - N/A   Clear
4:15 AM 69.8 °F 64.4 °F 83% 29.98 in 10.0 mi East 8.1 mph - N/A   Clear
4:35 AM 68.0 °F 62.6 °F 83% 29.98 in 10.0 mi East 10.4 mph - N/A   Clear
4:55 AM 68.0 °F 62.6 °F 83% 29.97 in 10.0 mi East 10.4 mph - N/A   Clear
5:15 AM 68.0 °F 60.8 °F 78% 29.98 in 10.0 mi East 8.1 mph - N/A   Clear
5:35 AM 68.0 °F 62.6 °F 83% 29.99 in 10.0 mi East 8.1 mph - N/A   Clear
6:15 AM 68.0 °F 62.6 °F 83% 30.00 in 10.0 mi East 9.2 mph - N/A   Clear
6:35 AM 68.0 °F 62.6 °F 83% 30.01 in 10.0 mi East 9.2 mph - N/A   Clear
6:55 AM 68.0 °F 62.6 °F 83% 30.01 in 10.0 mi ENE 8.1 mph - N/A   Clear
7:15 AM 68.0 °F 62.6 °F 83% 30.02 in 10.0 mi East 6.9 mph - N/A   Scattered Clouds
7:35 AM 68.0 °F 62.6 °F 83% 30.03 in 10.0 mi East 8.1 mph - N/A   Scattered Clouds
7:55 AM 68.0 °F 62.6 °F 83% 30.03 in 10.0 mi ENE 11.5 mph - N/A   Scattered Clouds
8:15 AM 68.0 °F 62.6 °F 83% 30.03 in 10.0 mi ENE 9.2 mph - N/A   Clear
8:35 AM 68.0 °F 62.6 °F 83% 30.03 in 10.0 mi East 15.0 mph 18.4 mph N/A   Clear
8:55 AM 68.0 °F 62.6 °F 83% 30.04 in 10.0 mi East 13.8 mph 19.6 mph N/A   Clear
9:15 AM 68.0 °F 62.6 °F 83% 30.04 in 10.0 mi East 11.5 mph 18.4 mph N/A   Clear
9:35 AM 68.0 °F 62.6 °F 83% 30.03 in 10.0 mi East 15.0 mph 19.6 mph N/A   Clear
9:55 AM 68.0 °F 62.6 °F 83% 30.03 in 10.0 mi East 12.7 mph - N/A   Clear
10:15 AM 68.0 °F 62.6 °F 83% 30.03 in 10.0 mi East 16.1 mph - N/A   Clear
10:35 AM 69.8 °F 62.6 °F 78% 30.05 in 10.0 mi East 11.5 mph - N/A   Clear
10:55 AM 71.6 °F 64.4 °F 78% 30.05 in 10.0 mi ENE 16.1 mph - N/A   Clear
11:15 AM 71.6 °F 62.6 °F 73% 30.06 in 10.0 mi ENE 15.0 mph 20.7 mph N/A   Clear
11:35 AM 71.6 °F 62.6 °F 73% 30.07 in 10.0 mi East 10.4 mph - N/A   Clear
11:55 AM 71.6 °F 62.6 °F 73% 30.07 in 10.0 mi East 12.7 mph - N/A   Scattered Clouds
12:15 PM 71.6 °F 62.6 °F 73% 30.07 in 10.0 mi East 17.3 mph - N/A   Scattered Clouds
12:35 PM 71.6 °F 62.6 °F 73% 30.06 in 10.0 mi East 16.1 mph - N/A   Clear
12:55 PM 71.6 °F 62.6 °F 73% 30.06 in 10.0 mi East 12.7 mph 18.4 mph N/A Rain Light Rain
1:15 PM 71.6 °F 62.6 °F 73% 30.06 in 10.0 mi East 13.8 mph 21.9 mph N/A Rain Light Rain
1:35 PM 71.6 °F 62.6 °F 73% 30.06 in 10.0 mi East 15.0 mph - N/A   Light Drizzle
1:55 PM 71.6 °F 64.4 °F 78% 30.06 in 10.0 mi East 11.5 mph 17.3 mph N/A   Light Drizzle
2:15 PM 71.6 °F 64.4 °F 78% 30.05 in 10.0 mi East 11.5 mph - N/A   Clear
2:35 PM 71.6 °F 64.4 °F 78% 30.05 in 10.0 mi ENE 15.0 mph 20.7 mph N/A Rain Light Rain
3:15 PM 71.6 °F 64.4 °F 78% 30.05 in 10.0 mi ENE 16.1 mph - N/A   Mostly Cloudy
3:35 PM 71.6 °F 64.4 °F 78% 30.04 in 10.0 mi East 13.8 mph 18.4 mph N/A   Light Drizzle
3:55 PM 71.6 °F 64.4 °F 78% 30.03 in 10.0 mi ENE 12.7 mph - N/A   Scattered Clouds
4:15 PM 71.6 °F 64.4 °F 78% 30.03 in 10.0 mi East 10.4 mph - N/A   Clear
4:35 PM 71.6 °F 62.6 °F 73% 30.03 in 10.0 mi East 16.1 mph 21.9 mph N/A   Clear
4:55 PM 71.6 °F 62.6 °F 73% 30.03 in 10.0 mi East 17.3 mph 21.9 mph N/A   Clear
5:15 PM 71.6 °F 62.6 °F 73% 30.03 in 10.0 mi East 15.0 mph 24.2 mph N/A   Scattered Clouds
5:35 PM 71.6 °F 62.6 °F 73% 30.02 in 10.0 mi East 17.3 mph 23.0 mph N/A   Scattered Clouds
5:55 PM 71.6 °F 62.6 °F 73% 30.01 in 10.0 mi East 18.4 mph 21.9 mph N/A   Scattered Clouds
6:15 PM 71.6 °F 62.6 °F 73% 30.00 in 10.0 mi East 16.1 mph - N/A   Clear
6:35 PM 71.6 °F 64.4 °F 78% 30.01 in 10.0 mi East 13.8 mph - N/A   Clear
6:55 PM 71.6 °F 64.4 °F 78% 30.01 in 10.0 mi East 13.8 mph 18.4 mph N/A   Clear
7:15 PM 71.6 °F 64.4 °F 78% 30.02 in 10.0 mi ENE 11.5 mph - N/A   Clear
7:35 PM 71.6 °F 64.4 °F 78% 30.02 in 10.0 mi ENE 13.8 mph - N/A   Clear
7:55 PM 71.6 °F 64.4 °F 78% 30.03 in 10.0 mi East 9.2 mph - N/A   Scattered Clouds
8:15 PM 69.8 °F 64.4 °F 83% 30.03 in 10.0 mi ENE 8.1 mph - N/A   Scattered Clouds
8:35 PM 69.8 °F 64.4 °F 83% 30.04 in 10.0 mi ENE 8.1 mph - N/A   Scattered Clouds
8:55 PM 69.8 °F 64.4 °F 83% 30.05 in 10.0 mi ENE 6.9 mph - N/A   Mostly Cloudy
9:35 PM 68.0 °F 64.4 °F 88% 30.06 in 7.0 mi NE 8.1 mph - N/A Rain Light Rain
9:55 PM 68.0 °F 64.4 °F 88% 30.06 in 7.0 mi NE 6.9 mph - N/A Rain Light Rain
10:35 PM 68.0 °F 64.4 °F 88% 30.07 in 7.0 mi ENE 10.4 mph - N/A   Light Drizzle
10:55 PM 66.2 °F 64.4 °F 94% 30.06 in 7.0 mi ENE 9.2 mph - N/A Rain Light Rain
11:15 PM 64.4 °F 62.6 °F 94% 30.06 in 10.0 mi ENE 10.4 mph - N/A   Scattered Clouds
11:35 PM 64.4 °F 62.6 °F 94% 30.06 in 10.0 mi East 12.7 mph - N/A   Clear
11:55 PM 64.4 °F 62.6 °F 94% 30.06 in 10.0 mi East 12.7 mph - N/A   Clear